Location: Izdebno
(52.6670°N, 16.2170°E)
Time: 18:57:48
(UTC+02:00)

Transit 4A - Pass Details

Date: 27 February 2024
Orbit: 871 x 972 km, 66.8° (Epoch: 21 April)

Event Time Altitude Azimuth Distance (km) Brightness Sun altitude
Rises 23:54:26 0° 174° (S) 3,600 - -45.9°
Reaches altitude 10° 23:57:25 10° 162° (SSE) 2,644 - -45.9°
Maximum altitude 00:02:15 25° 110° (ESE) 1,782 - -45.9°
Drops below altitude 10° 00:07:00 10° 57° (ENE) 2,601 - -46.0°
Exits shadow 00:08:13 - 51° (NE) 2,973 10.9 -46.0°
Sets 00:09:54 0° 45° (NE) 3,530 11.4 -46.0°
